Mobile, AL

12:26 AM CDT on October 21, 2017 (GMT -0500)
Mobile Regional

Weather History for KMOB - July, 2013

Change the Weather History Date:

Wednesday, July 24, 2013

  Actual Average Record
Temperature  
Mean Temperature 82 °F 82 °F  
Max Temperature 91 °F 91 °F 103 °F (1952)
Min Temperature 73 °F 73 °F 68 °F (1904)
Cooling Degree Days 17 17  
Month to date cooling degree days 364 406  
Year to date cooling degree days 1214 1295  
Since 1 June cooling degree days 850 850  
Growing Degree Days 32 (Base 50)    
Moisture  
Dew Point 73 °F    
Average Humidity 77    
Maximum Humidity 94    
Minimum Humidity 59    
Precipitation  
Precipitation 0.06 in 0.24 in 2.20 in (1954)
Month to date precipitation 8.53 5.59  
Year to date precipitation 41.18 38.54  
Sea Level Pressure  
Sea Level Pressure 29.94 in    
Wind  
Wind Speed 6 mph (West)    
Max Wind Speed 23 mph    
Max Gust Speed 30 mph    
Visibility 7 miles    
Events Rain , Thunderstorm    
T = Trace of Precipitation, MM = Missing Value Source: NWS Daily Summary

Daily Weather History Graph

Daily Weather History Graph

Search for Another Location

Airport or City:

Trip Planner

Search our weather history database for the weather conditions in past years. The results will help you decide how hot, cold, wet, or windy it might be!

Date:

Astronomy

Jul. 24, 2013 Rise Set
Actual Time 6:05 AM CDT 7:52 PM CDT
Civil Twilight 5:39 AM CDT 8:19 PM CDT
Nautical Twilight 5:07 AM CDT 8:51 PM CDT
Astronomical Twilight 4:33 AM CDT 9:25 PM CDT
Moon 9:14 PM CDT (7/24) 8:12 AM CDT (7/24)
Length of Visible Light 14h 39m
Length of Day
13h 46m
Waning Gibbous, 94% of the Moon is Illuminated
Jul 24
Waning Gibbous
Jul 29
Last Quarter
Aug 6
New
Aug 14
First Quarter
Aug 20
Full

Hourly Weather History & Observations

Time (CDT) Temp. Heat Index Dew Point Humidity Pressure Visibility Wind Dir Wind Speed Gust Speed Precip Events Conditions
12:56 AM 77.0 °F - 72.0 °F 84% 29.94 in 10.0 mi WSW 3.5 mph - N/A   Clear
1:56 AM 78.1 °F - 73.0 °F 84% 29.92 in 10.0 mi WSW 5.8 mph - N/A   Clear
2:56 AM 77.0 °F - 73.0 °F 88% 29.91 in 10.0 mi WSW 4.6 mph - N/A   Clear
3:56 AM 75.9 °F - 73.0 °F 91% 29.92 in 9.0 mi WSW 4.6 mph - N/A   Clear
4:54 AM 75.2 °F - 73.4 °F 94% 29.95 in 8.0 mi West 5.8 mph - 0.01 in   Mostly Cloudy
4:56 AM 75.9 °F - 73.0 °F 91% 29.94 in 8.0 mi West 5.8 mph - 0.01 in   Mostly Cloudy
5:26 AM 75.2 °F - 73.4 °F 94% 29.96 in 8.0 mi WSW 5.8 mph - N/A   Scattered Clouds
5:56 AM 75.9 °F - 73.9 °F 94% 29.95 in 5.0 mi WSW 6.9 mph - N/A   Mostly Cloudy
6:32 AM 77.0 °F - 73.4 °F 89% 29.95 in 3.0 mi WSW 6.9 mph - N/A   Mostly Cloudy
6:56 AM 77.0 °F - 73.9 °F 90% 29.94 in 3.0 mi WSW 5.8 mph - N/A   Mostly Cloudy
7:01 AM 77.0 °F - 73.4 °F 89% 29.95 in 3.0 mi West 6.9 mph - N/A   Mostly Cloudy
7:31 AM 78.8 °F - 73.4 °F 83% 29.96 in 3.0 mi West 9.2 mph 17.3 mph N/A   Overcast
7:56 AM 78.1 °F - 73.9 °F 87% 29.96 in 3.0 mi West 8.1 mph - N/A   Overcast
8:56 AM 80.1 °F 85.1 °F 75.0 °F 85% 29.96 in 3.0 mi West 5.8 mph - N/A   Haze
9:56 AM 81.0 °F 86.2 °F 73.9 °F 79% 29.97 in 3.0 mi West 8.1 mph - N/A   Haze
10:18 AM 80.6 °F 85.4 °F 73.4 °F 79% 29.98 in 3.0 mi West 6.9 mph - N/A   Haze
10:56 AM 82.0 °F 87.9 °F 73.9 °F 76% 29.96 in 5.0 mi West 9.2 mph - N/A   Haze
11:11 AM 82.4 °F 89.5 °F 75.2 °F 79% 29.97 in 7.0 mi West 10.4 mph - N/A   Overcast
11:56 AM 84.0 °F 91.2 °F 73.9 °F 72% 29.96 in 7.0 mi West 8.1 mph - N/A   Overcast
12:56 PM 84.9 °F 92.1 °F 73.9 °F 69% 29.96 in 7.0 mi West 11.5 mph - N/A   Overcast
1:07 PM 86.0 °F 95.1 °F 75.2 °F 70% 29.96 in 7.0 mi WSW 8.1 mph - N/A   Overcast
1:56 PM 88.0 °F 97.5 °F 75.0 °F 65% 29.94 in 8.0 mi WNW 10.4 mph - N/A   Mostly Cloudy
2:56 PM 90.0 °F 97.9 °F 73.0 °F 57% 29.91 in 8.0 mi WNW 8.1 mph - N/A   Mostly Cloudy
3:56 PM 90.0 °F 97.9 °F 73.0 °F 57% 29.89 in 8.0 mi West 8.1 mph - N/A   Mostly Cloudy
4:56 PM 88.0 °F 95.6 °F 73.0 °F 61% 29.89 in 10.0 mi WNW 3.5 mph - N/A   Mostly Cloudy
5:56 PM 87.1 °F 93.6 °F 72.0 °F 61% 29.89 in 10.0 mi Calm Calm - N/A   Mostly Cloudy
6:56 PM 84.9 °F 92.1 °F 73.9 °F 69% 29.89 in 8.0 mi Calm Calm - N/A   Mostly Cloudy
7:56 PM 84.0 °F 90.2 °F 73.0 °F 69% 29.90 in 8.0 mi Calm Calm - 0.01 in   Mostly Cloudy
8:25 PM 82.4 °F 89.5 °F 75.2 °F 79% 29.91 in 8.0 mi SSW 3.5 mph - 0.00 in Thunderstorm Thunderstorm
8:56 PM 78.1 °F - 70.0 °F 76% 29.93 in 7.0 mi NNW 18.4 mph 29.9 mph 0.00 in Rain , Thunderstorm Light Thunderstorms and Rain
9:11 PM 75.2 °F - 71.6 °F 89% 29.94 in 7.0 mi North 10.4 mph - 0.02 in Rain , Thunderstorm Light Thunderstorms and Rain
9:46 PM 73.4 °F - 69.8 °F 88% 29.95 in 10.0 mi North 3.5 mph - 0.02 in Rain Light Rain
9:56 PM 73.9 °F - 70.0 °F 87% 29.94 in 10.0 mi North 4.6 mph - 0.02 in Rain Light Rain
10:17 PM 73.4 °F - 69.8 °F 88% 29.95 in 10.0 mi NE 3.5 mph - 0.00 in Rain , Thunderstorm Light Thunderstorms and Rain
10:43 PM 73.4 °F - 69.8 °F 88% 29.94 in 10.0 mi Calm Calm - 0.00 in   Overcast
10:56 PM 73.9 °F - 70.0 °F 87% 29.93 in 10.0 mi Calm Calm - 0.00 in   Mostly Cloudy
11:56 PM 73.9 °F - 70.0 °F 87% 29.93 in 10.0 mi Calm Calm - N/A   Mostly Cloudy